Time,TemperatureF,DewpointF,PressureIn,WindDirection,WindDirectionDegrees,WindSpeedMPH,WindSpeedGustMPH,Humidity,HourlyPrecipIn,Conditions,Clouds,dailyrainin,SoftwareType,DateUTC
2013-02-27 00:00:00,15.8,14.6,29.99,NW,311,3.0,5.2,95,0.00,,,0.00,VWS V14.01,2013-02-27 06:00:00,
2013-02-27 00:10:00,15.5,14.3,29.99,NW,313,4.0,4.2,95,0.00,,,0.00,VWS V14.01,2013-02-27 06:10:00,
2013-02-27 00:15:00,15.5,14.3,29.99,NW,309,3.0,5.2,95,0.00,,,0.00,VWS V14.01,2013-02-27 06:15:00,
2013-02-27 00:20:00,15.5,14.3,29.99,NNW,327,4.0,5.2,95,0.00,,,0.00,VWS V14.01,2013-02-27 06:20:00,
2013-02-27 00:25:00,15.5,14.3,29.99,NW,325,4.0,5.2,95,0.00,,,0.00,VWS V14.01,2013-02-27 06:25:00,
2013-02-27 00:30:00,15.4,14.2,29.99,NW,318,2.0,4.2,95,0.00,,,0.00,VWS V14.01,2013-02-27 06:30:00,
2013-02-27 00:35:00,15.6,14.4,29.99,NW,314,4.0,5.2,95,0.00,,,0.00,VWS V14.01,2013-02-27 06:35:00,
2013-02-27 00:40:00,15.6,14.4,29.99,NNW,333,3.0,5.2,95,0.00,,,0.00,VWS V14.01,2013-02-27 06:40:00,
2013-02-27 00:45:00,15.5,14.3,29.99,NW,309,4.0,5.2,95,0.00,,CLR,0.00,VWS V14.01,2013-02-27 06:45:00,
2013-02-27 00:50:00,15.4,14.2,29.99,NW,306,2.0,6.3,95,0.00,,CLR,0.00,VWS V14.01,2013-02-27 06:50:00,
2013-02-27 00:55:00,15.4,14.2,29.99,NW,315,3.0,5.2,95,0.00,,CLR,0.00,VWS V14.01,2013-02-27 06:55:00,
2013-02-27 01:00:00,15.4,14.2,29.99,NW,319,4.0,5.2,95,0.00,,CLR,0.00,VWS V14.01,2013-02-27 07:00:00,
2013-02-27 01:10:00,15.4,14.2,29.99,NW,306,4.0,5.2,95,0.00,,CLR,0.00,VWS V14.01,2013-02-27 07:10:00,
2013-02-27 01:15:00,15.4,14.2,29.99,NW,313,4.0,6.3,95,0.00,,CLR,0.00,VWS V14.01,2013-02-27 07:15:00,
2013-02-27 01:20:00,15.6,14.4,29.99,NW,311,5.0,6.3,95,0.00,,CLR,0.00,VWS V14.01,2013-02-27 07:20:00,
2013-02-27 01:25:00,15.6,14.4,29.99,NW,309,4.0,7.3,95,0.00,,CLR,0.00,VWS V14.01,2013-02-27 07:25:00,
2013-02-27 01:30:00,15.7,14.5,29.99,NW,314,3.0,7.3,95,0.00,,CLR,0.00,VWS V14.01,2013-02-27 07:30:00,
2013-02-27 01:35:00,15.8,14.6,29.99,NW,323,4.0,6.3,95,0.00,,CLR,0.00,VWS V14.01,2013-02-27 07:35:00,
2013-02-27 01:40:00,15.7,14.5,29.99,NW,314,6.0,6.3,95,0.00,,CLR,0.00,VWS V14.01,2013-02-27 07:40:00,
2013-02-27 01:45:00,15.7,14.5,29.99,NW,311,5.0,7.3,95,0.00,,CLR,0.00,VWS V14.01,2013-02-27 07:45:00,
2013-02-27 01:50:00,15.7,14.5,29.99,NW,315,4.0,6.3,95,0.00,,CLR,0.00,VWS V14.01,2013-02-27 07:50:00,
2013-02-27 01:55:00,15.9,14.7,29.99,NW,309,4.0,7.3,95,0.00,,CLR,0.00,VWS V14.01,2013-02-27 07:55:00,
2013-02-27 02:00:00,16.0,14.8,29.99,NW,304,7.0,7.3,95,0.00,,CLR,0.00,VWS V14.01,2013-02-27 08:00:00,
2013-02-27 02:05:00,16.1,14.9,29.99,NW,315,5.0,8.4,95,0.00,,CLR,0.00,VWS V14.01,2013-02-27 08:05:00,
2013-02-27 02:10:00,16.2,15.0,29.99,NW,312,6.0,8.4,95,0.00,,CLR,0.00,VWS V14.01,2013-02-27 08:10:00,
2013-02-27 02:15:00,16.3,15.1,29.99,NW,317,4.0,8.4,95,0.00,,CLR,0.00,VWS V14.01,2013-02-27 08:15:00,
2013-02-27 02:20:00,16.3,15.1,29.99,NW,307,5.0,7.3,95,0.00,,CLR,0.00,VWS V14.01,2013-02-27 08:20:00,
2013-02-27 02:25:00,16.2,15.0,29.99,NW,304,7.0,8.4,95,0.00,,CLR,0.00,VWS V14.01,2013-02-27 08:25:00,
2013-02-27 02:30:00,16.0,14.8,29.99,NW,316,4.0,9.4,95,0.00,,CLR,0.00,VWS V14.01,2013-02-27 08:30:00,
2013-02-27 02:35:00,15.9,14.7,29.99,NW,316,6.0,8.4,95,0.00,,CLR,0.00,VWS V14.01,2013-02-27 08:35:00,
2013-02-27 02:40:00,15.8,14.6,29.99,NW,308,7.0,8.4,95,0.00,,CLR,0.00,VWS V14.01,2013-02-27 08:40:00,
2013-02-27 02:45:00,15.8,14.6,29.99,NW,306,7.0,8.4,95,0.00,,CLR,0.00,VWS V14.01,2013-02-27 08:45:00,
2013-02-27 02:50:00,15.7,14.5,29.99,WNW,298,7.0,9.4,95,0.00,,CLR,0.00,VWS V14.01,2013-02-27 08:50:00,
2013-02-27 02:55:00,15.6,14.4,29.99,NW,308,7.0,9.4,95,0.00,,CLR,0.00,VWS V14.01,2013-02-27 08:55:00,
2013-02-27 03:00:00,15.6,14.4,29.99,NW,323,8.0,9.4,95,0.00,,CLR,0.00,VWS V14.01,2013-02-27 09:00:00,
2013-02-27 03:05:00,15.5,14.1,29.99,NW,309,7.0,10.5,94,0.00,,CLR,0.00,VWS V14.01,2013-02-27 09:05:00,
2013-02-27 03:10:00,15.3,13.9,29.99,NW,313,6.0,8.4,94,0.00,,CLR,0.00,VWS V14.01,2013-02-27 09:10:00,
2013-02-27 03:15:00,15.2,13.8,29.99,NW,324,4.0,8.4,94,0.00,,CLR,0.00,VWS V14.01,2013-02-27 09:15:00,
2013-02-27 03:20:00,15.0,13.6,29.99,NW,316,5.0,8.4,94,0.00,,CLR,0.00,VWS V14.01,2013-02-27 09:20:00,
2013-02-27 03:25:00,15.0,13.6,29.98,NW,316,5.0,5.2,94,0.00,,CLR,0.00,VWS V14.01,2013-02-27 09:25:00,
2013-02-27 03:30:00,14.8,13.4,29.99,NW,314,5.0,8.4,94,0.00,,CLR,0.00,VWS V14.01,2013-02-27 09:30:00,
2013-02-27 03:35:00,14.6,13.2,29.99,NW,311,7.0,8.4,94,0.00,,CLR,0.00,VWS V14.01,2013-02-27 09:35:00,
2013-02-27 03:40:00,14.5,13.1,29.98,NW,314,6.0,8.4,94,0.00,,CLR,0.00,VWS V14.01,2013-02-27 09:40:00,
2013-02-27 03:45:00,14.5,13.1,29.99,NW,306,6.0,8.4,94,0.00,,CLR,0.00,VWS V14.01,2013-02-27 09:45:00,
2013-02-27 03:50:00,14.5,13.1,29.99,NW,309,7.0,9.4,94,0.00,,CLR,0.00,VWS V14.01,2013-02-27 09:50:00,
2013-02-27 03:55:00,14.4,13.0,29.99,NW,311,5.0,8.4,94,0.00,,CLR,0.00,VWS V14.01,2013-02-27 09:55:00,
2013-02-27 04:00:00,14.3,12.9,29.98,NW,306,6.0,8.4,94,0.00,,CLR,0.00,VWS V14.01,2013-02-27 10:00:00,
2013-02-27 04:05:00,14.3,12.9,29.98,NNW,327,6.0,8.4,94,0.00,,CLR,0.00,VWS V14.01,2013-02-27 10:05:00,
2013-02-27 04:10:00,14.1,12.7,29.98,NW,317,6.0,9.4,94,0.00,,CLR,0.00,VWS V14.01,2013-02-27 10:10:00,
2013-02-27 04:15:00,14.0,12.6,29.99,WNW,302,7.0,8.4,94,0.00,,CLR,0.00,VWS V14.01,2013-02-27 10:15:00,
2013-02-27 04:20:00,14.0,12.6,29.99,NW,319,4.0,8.4,94,0.00,,CLR,0.00,VWS V14.01,2013-02-27 10:20:00,
2013-02-27 04:25:00,14.1,12.7,29.99,NW,312,5.0,9.4,94,0.00,,CLR,0.00,VWS V14.01,2013-02-27 10:25:00,
2013-02-27 04:30:00,14.2,12.8,29.99,NW,316,6.0,8.4,94,0.00,,CLR,0.00,VWS V14.01,2013-02-27 10:30:00,
2013-02-27 04:35:00,14.2,12.8,29.99,WNW,298,6.0,9.4,94,0.00,,CLR,0.00,VWS V14.01,2013-02-27 10:35:00,
2013-02-27 04:40:00,14.3,12.9,29.99,NW,323,7.0,9.4,94,0.00,,CLR,0.00,VWS V14.01,2013-02-27 10:40:00,
2013-02-27 04:45:00,14.3,12.9,29.99,NW,310,8.0,10.5,94,0.00,,CLR,0.00,VWS V14.01,2013-02-27 10:45:00,
2013-02-27 04:50:00,14.2,12.5,29.99,NW,313,6.0,9.4,93,0.00,,CLR,0.00,VWS V14.01,2013-02-27 10:50:00,
2013-02-27 04:55:00,14.2,12.5,29.99,NW,306,9.0,9.4,93,0.00,,CLR,0.00,VWS V14.01,2013-02-27 10:55:00,
2013-02-27 05:00:00,14.2,12.5,29.99,NW,311,7.0,10.5,93,0.00,,CLR,0.00,VWS V14.01,2013-02-27 11:00:00,
2013-02-27 05:10:00,14.0,12.3,29.99,NW,311,4.0,9.4,93,0.00,,CLR,0.00,VWS V14.01,2013-02-27 11:10:00,
2013-02-27 05:15:00,13.7,12.0,29.99,NW,316,6.0,8.4,93,0.00,,CLR,0.00,VWS V14.01,2013-02-27 11:15:00,
2013-02-27 05:20:00,13.6,11.9,29.99,NW,316,5.0,9.4,93,0.00,,CLR,0.00,VWS V14.01,2013-02-27 11:20:00,
2013-02-27 05:25:00,13.4,11.7,29.99,NW,310,5.0,8.4,93,0.00,,CLR,0.00,VWS V14.01,2013-02-27 11:25:00,
2013-02-27 05:30:00,13.2,11.5,29.99,NW,313,4.0,7.3,93,0.00,,CLR,0.00,VWS V14.01,2013-02-27 11:30:00,
2013-02-27 05:35:00,13.2,11.5,29.99,NW,309,5.0,7.3,93,0.00,,CLR,0.00,VWS V14.01,2013-02-27 11:35:00,
2013-02-27 05:40:00,13.0,11.3,29.99,NW,306,5.0,8.4,93,0.00,,CLR,0.00,VWS V14.01,2013-02-27 11:40:00,
2013-02-27 05:45:00,12.9,11.2,30.00,NW,313,7.0,8.4,93,0.00,,CLR,0.00,VWS V14.01,2013-02-27 11:45:00,
2013-02-27 05:50:00,12.9,11.2,30.00,NW,313,4.0,8.4,93,0.00,,CLR,0.00,VWS V14.01,2013-02-27 11:50:00,
2013-02-27 05:55:00,13.0,11.3,30.00,NW,309,5.0,8.4,93,0.00,,CLR,0.00,VWS V14.01,2013-02-27 11:55:00,
2013-02-27 06:00:00,12.9,11.2,30.00,NW,309,6.0,8.4,93,0.00,,CLR,0.00,VWS V14.01,2013-02-27 12:00:00,
2013-02-27 06:05:00,12.8,11.1,30.01,NW,318,6.0,7.3,93,0.00,,CLR,0.00,VWS V14.01,2013-02-27 12:05:00,
2013-02-27 06:10:00,12.6,10.9,30.01,NW,315,4.0,7.3,93,0.00,,CLR,0.00,VWS V14.01,2013-02-27 12:10:00,
2013-02-27 06:15:00,12.2,10.3,30.01,NW,304,6.0,7.3,92,0.00,,CLR,0.00,VWS V14.01,2013-02-27 12:15:00,
2013-02-27 06:20:00,12.1,10.4,30.01,NW,318,5.0,7.3,93,0.00,,CLR,0.00,VWS V14.01,2013-02-27 12:20:00,
2013-02-27 06:25:00,12.3,10.6,30.01,NW,313,5.0,8.4,93,0.00,,CLR,0.00,VWS V14.01,2013-02-27 12:25:00,
2013-02-27 06:30:00,12.4,10.8,30.01,NW,311,7.0,8.4,93,0.00,,CLR,0.00,VWS V14.01,2013-02-27 12:30:00,
2013-02-27 06:35:00,12.5,10.8,30.01,NW,315,6.0,8.4,93,0.00,,CLR,0.00,VWS V14.01,2013-02-27 12:35:00,
2013-02-27 06:40:00,12.4,10.8,30.01,NW,315,7.0,7.3,93,0.00,,CLR,0.00,VWS V14.01,2013-02-27 12:40:00,
2013-02-27 06:45:00,12.3,10.6,30.01,NW,312,3.0,8.4,93,0.00,,CLR,0.00,VWS V14.01,2013-02-27 12:45:00,
2013-02-27 06:50:00,12.3,10.6,30.01,NW,322,3.0,7.3,93,0.00,,CLR,0.00,VWS V14.01,2013-02-27 12:50:00,
2013-02-27 06:55:00,12.2,10.6,30.02,NW,308,5.0,7.3,93,0.00,,CLR,0.00,VWS V14.01,2013-02-27 12:55:00,
2013-02-27 07:00:00,12.3,10.4,30.02,NW,310,4.0,7.3,92,0.00,,CLR,0.00,VWS V14.01,2013-02-27 13:00:00,
2013-02-27 07:05:00,12.2,10.6,30.02,NW,323,4.0,6.3,93,0.00,,CLR,0.00,VWS V14.01,2013-02-27 13:05:00,
2013-02-27 07:10:00,12.2,10.6,30.02,NW,311,6.0,7.3,93,0.00,,CLR,0.00,VWS V14.01,2013-02-27 13:10:00,
2013-02-27 07:15:00,12.2,10.6,30.02,NW,311,6.0,6.3,93,0.00,,CLR,0.00,VWS V14.01,2013-02-27 13:15:00,
2013-02-27 07:20:00,12.7,11.0,30.02,NW,311,6.0,7.3,93,0.00,,CLR,0.00,VWS V14.01,2013-02-27 13:20:00,
2013-02-27 07:25:00,12.7,10.8,30.02,WNW,298,6.0,8.4,92,0.00,,CLR,0.00,VWS V14.01,2013-02-27 13:25:00,
2013-02-27 07:30:00,12.8,10.9,30.03,NW,315,7.0,8.4,92,0.00,,CLR,0.00,VWS V14.01,2013-02-27 13:30:00,
2013-02-27 07:35:00,12.9,11.0,30.03,NW,317,6.0,8.4,92,0.00,,CLR,0.00,VWS V14.01,2013-02-27 13:35:00,
2013-02-27 07:40:00,12.9,11.0,30.03,NW,314,6.0,7.3,92,0.00,,CLR,0.00,VWS V14.01,2013-02-27 13:40:00,
2013-02-27 07:45:00,12.8,10.9,30.03,NW,307,6.0,8.4,92,0.00,,CLR,0.00,VWS V14.01,2013-02-27 13:45:00,
2013-02-27 07:50:00,12.9,11.0,30.03,NW,309,5.0,7.3,92,0.00,,CLR,0.00,VWS V14.01,2013-02-27 13:50:00,
2013-02-27 07:55:00,13.1,11.2,30.03,NW,306,4.0,8.4,92,0.00,,CLR,0.00,VWS V14.01,2013-02-27 13:55:00,
2013-02-27 08:00:00,13.3,11.4,30.04,NW,313,4.0,6.3,92,0.00,,CLR,0.00,VWS V14.01,2013-02-27 14:00:00,
2013-02-27 08:05:00,13.3,11.1,30.04,NW,324,4.0,7.3,91,0.00,,CLR,0.00,VWS V14.01,2013-02-27 14:05:00,
2013-02-27 08:10:00,13.3,11.1,30.04,NW,313,5.0,7.3,91,0.00,,CLR,0.00,VWS V14.01,2013-02-27 14:10:00,
2013-02-27 08:15:00,13.5,11.6,30.04,NW,307,6.0,7.3,92,0.00,,CLR,0.00,VWS V14.01,2013-02-27 14:15:00,
2013-02-27 08:20:00,13.7,11.8,30.04,NW,311,2.0,7.3,92,0.00,,CLR,0.00,VWS V14.01,2013-02-27 14:20:00,
2013-02-27 08:25:00,14.0,11.8,30.04,NW,319,5.0,7.3,91,0.00,,CLR,0.00,VWS V14.01,2013-02-27 14:25:00,
2013-02-27 08:30:00,14.3,12.1,30.04,NW,313,7.0,9.4,91,0.00,,CLR,0.00,VWS V14.01,2013-02-27 14:30:00,
2013-02-27 08:35:00,14.6,12.4,30.04,NW,309,7.0,9.4,91,0.00,,CLR,0.00,VWS V14.01,2013-02-27 14:35:00,
2013-02-27 08:40:00,14.9,12.7,30.04,NW,311,7.0,9.4,91,0.00,,CLR,0.00,VWS V14.01,2013-02-27 14:40:00,
2013-02-27 08:45:00,15.2,13.0,30.04,NW,309,6.0,9.4,91,0.00,,CLR,0.00,VWS V14.01,2013-02-27 14:45:00,
2013-02-27 08:50:00,15.5,13.3,30.04,NW,307,7.0,10.5,91,0.00,,CLR,0.00,VWS V14.01,2013-02-27 14:50:00,
2013-02-27 08:55:00,15.9,13.7,30.04,NW,311,9.0,11.5,91,0.00,,CLR,0.00,VWS V14.01,2013-02-27 14:55:00,
2013-02-27 09:00:00,16.2,13.8,30.05,NW,318,7.0,10.5,90,0.00,,CLR,0.00,VWS V14.01,2013-02-27 15:00:00,
2013-02-27 09:05:00,16.4,14.0,30.04,NW,317,5.0,10.5,90,0.00,,CLR,0.00,VWS V14.01,2013-02-27 15:05:00,
2013-02-27 09:10:00,16.6,14.2,30.05,NW,309,8.0,9.4,90,0.00,,CLR,0.00,VWS V14.01,2013-02-27 15:10:00,
2013-02-27 09:15:00,16.8,14.4,30.05,NW,319,6.0,8.4,90,0.00,,CLR,0.00,VWS V14.01,2013-02-27 15:15:00,
2013-02-27 09:20:00,17.1,14.6,30.05,NW,325,4.0,8.4,90,0.00,,CLR,0.00,VWS V14.01,2013-02-27 15:20:00,
2013-02-27 09:25:00,17.6,15.1,30.05,NW,306,6.0,8.4,90,0.00,,CLR,0.00,VWS V14.01,2013-02-27 15:25:00,
2013-02-27 09:30:00,17.8,15.3,30.05,NW,309,8.0,9.4,90,0.00,,CLR,0.00,VWS V14.01,2013-02-27 15:30:00,
2013-02-27 09:35:00,17.9,15.2,30.05,NW,313,8.0,10.5,89,0.00,,CLR,0.00,VWS V14.01,2013-02-27 15:35:00,
2013-02-27 09:40:00,17.8,15.1,30.05,WNW,303,7.0,11.5,89,0.00,,CLR,0.00,VWS V14.01,2013-02-27 15:40:00,
2013-02-27 09:45:00,17.9,15.2,30.05,NW,317,7.0,10.5,89,0.00,,CLR,0.00,VWS V14.01,2013-02-27 15:45:00,
2013-02-27 09:50:00,18.0,15.3,30.05,WNW,303,8.0,10.5,89,0.00,,CLR,0.00,VWS V14.01,2013-02-27 15:50:00,
2013-02-27 09:55:00,18.1,15.4,30.05,NW,322,8.0,12.6,89,0.00,,CLR,0.00,VWS V14.01,2013-02-27 15:55:00,
2013-02-27 10:00:00,18.3,15.6,30.05,NW,308,8.0,11.5,89,0.00,,CLR,0.00,VWS V14.01,2013-02-27 16:00:00,
2013-02-27 10:10:00,18.6,15.9,30.05,NW,304,7.0,10.5,89,0.00,,CLR,0.00,VWS V14.01,2013-02-27 16:10:00,
2013-02-27 10:15:00,18.8,16.1,30.05,NW,309,6.0,10.5,89,0.00,,CLR,0.00,VWS V14.01,2013-02-27 16:15:00,
2013-02-27 10:20:00,19.0,16.3,30.05,NW,305,7.0,8.4,89,0.00,,CLR,0.00,VWS V14.01,2013-02-27 16:20:00,
2013-02-27 10:25:00,19.2,16.5,30.05,NW,310,8.0,10.5,89,0.00,,CLR,0.00,VWS V14.01,2013-02-27 16:25:00,
2013-02-27 10:30:00,19.4,16.7,30.05,NW,313,8.0,10.5,89,0.00,,CLR,0.00,VWS V14.01,2013-02-27 16:30:00,
2013-02-27 10:35:00,19.7,17.0,30.05,NW,312,6.0,10.5,89,0.00,,CLR,0.00,VWS V14.01,2013-02-27 16:35:00,
2013-02-27 10:40:00,20.1,17.4,30.05,NW,319,4.0,8.4,89,0.00,,CLR,0.00,VWS V14.01,2013-02-27 16:40:00,
2013-02-27 10:45:00,20.7,18.0,30.04,NW,304,8.0,8.4,89,0.00,,CLR,0.00,VWS V14.01,2013-02-27 16:45:00,
2013-02-27 10:50:00,21.1,18.3,30.05,NW,306,8.0,11.5,89,0.00,,CLR,0.00,VWS V14.01,2013-02-27 16:50:00,
2013-02-27 10:55:00,21.5,18.5,30.04,NW,313,9.0,10.5,88,0.00,,CLR,0.00,VWS V14.01,2013-02-27 16:55:00,
2013-02-27 11:00:00,21.5,18.5,30.04,NW,305,9.0,10.5,88,0.00,,CLR,0.00,VWS V14.01,2013-02-27 17:00:00,
2013-02-27 11:05:00,21.6,18.6,30.04,NW,311,8.0,11.5,88,0.00,,CLR,0.00,VWS V14.01,2013-02-27 17:05:00,
2013-02-27 11:10:00,21.7,18.7,30.04,NW,313,9.0,12.6,88,0.00,,CLR,0.00,VWS V14.01,2013-02-27 17:10:00,
2013-02-27 11:15:00,21.8,18.8,30.04,NW,314,9.0,12.6,88,0.00,,CLR,0.00,VWS V14.01,2013-02-27 17:15:00,
2013-02-27 11:20:00,22.0,19.0,30.04,NW,308,8.0,11.5,88,0.00,,CLR,0.00,VWS V14.01,2013-02-27 17:20:00,
2013-02-27 11:25:00,22.3,19.5,30.04,NNW,327,8.0,10.5,89,0.00,,CLR,0.00,VWS V14.01,2013-02-27 17:25:00,
2013-02-27 11:30:00,22.6,19.5,30.05,NW,305,11.0,11.5,88,0.00,,CLR,0.00,VWS V14.01,2013-02-27 17:30:00,
2013-02-27 11:35:00,22.7,19.6,30.04,NW,313,9.0,11.5,88,0.00,,CLR,0.00,VWS V14.01,2013-02-27 17:35:00,
2013-02-27 11:40:00,22.9,19.9,30.04,NW,313,9.0,11.5,88,0.00,,CLR,0.00,VWS V14.01,2013-02-27 17:40:00,
2013-02-27 11:45:00,23.0,20.0,30.04,NW,311,9.0,12.6,88,0.00,,CLR,0.00,VWS V14.01,2013-02-27 17:45:00,
2013-02-27 11:50:00,23.3,20.2,30.04,NW,307,9.0,12.6,88,0.00,,CLR,0.00,VWS V14.01,2013-02-27 17:50:00,
2013-02-27 11:55:00,23.4,20.3,30.04,NW,306,11.0,13.6,88,0.00,,CLR,0.00,VWS V14.01,2013-02-27 17:55:00,
2013-02-27 12:00:00,23.5,20.4,30.04,NW,312,9.0,13.6,88,0.00,,CLR,0.00,VWS V14.01,2013-02-27 18:00:00,
2013-02-27 12:05:00,23.7,20.6,30.04,NW,308,9.0,14.7,88,0.00,,CLR,0.00,VWS V14.01,2013-02-27 18:05:00,
2013-02-27 12:10:00,23.9,20.6,30.03,NW,307,10.0,13.6,87,0.00,,CLR,0.00,VWS V14.01,2013-02-27 18:10:00,
2013-02-27 12:15:00,24.0,20.7,30.03,NW,306,10.0,14.7,87,0.00,,CLR,0.00,VWS V14.01,2013-02-27 18:15:00,
2013-02-27 12:20:00,24.0,20.4,30.03,NW,304,7.0,14.7,86,0.00,,CLR,0.00,VWS V14.01,2013-02-27 18:20:00,
2013-02-27 12:25:00,23.9,20.3,30.03,NW,307,7.0,14.7,86,0.00,,CLR,0.00,VWS V14.01,2013-02-27 18:25:00,
2013-02-27 12:30:00,23.7,20.1,30.03,NW,309,9.0,13.6,86,0.00,,CLR,0.00,VWS V14.01,2013-02-27 18:30:00,
2013-02-27 12:35:00,23.6,20.0,30.03,NW,312,11.0,15.7,86,0.00,,CLR,0.00,VWS V14.01,2013-02-27 18:35:00,
2013-02-27 12:40:00,23.6,20.0,30.03,NW,324,11.0,13.6,86,0.00,,CLR,0.00,VWS V14.01,2013-02-27 18:40:00,
2013-02-27 12:45:00,23.4,19.5,30.03,WNW,301,10.0,15.7,85,0.00,,CLR,0.00,VWS V14.01,2013-02-27 18:45:00,
2013-02-27 12:55:00,23.2,19.3,30.03,NW,307,9.0,15.7,85,0.00,,CLR,0.00,VWS V14.01,2013-02-27 18:55:00,
2013-02-27 13:00:00,23.1,19.2,30.03,WNW,295,11.0,15.7,85,0.00,,CLR,0.00,VWS V14.01,2013-02-27 19:00:00,
2013-02-27 13:05:00,23.1,19.2,30.03,NW,312,11.0,15.7,85,0.00,,CLR,0.00,VWS V14.01,2013-02-27 19:05:00,
2013-02-27 13:15:00,23.8,20.2,30.03,NW,321,12.0,15.7,86,0.00,,CLR,0.00,VWS V14.01,2013-02-27 19:15:00,
2013-02-27 13:20:00,24.0,20.7,30.03,WNW,303,9.0,12.6,87,0.00,,CLR,0.00,VWS V14.01,2013-02-27 19:20:00,
2013-02-27 13:25:00,24.3,21.0,30.03,NW,305,8.0,11.5,87,0.00,,CLR,0.00,VWS V14.01,2013-02-27 19:25:00,
2013-02-27 13:35:00,24.4,21.1,30.02,NW,317,9.0,11.5,87,0.00,,CLR,0.00,VWS V14.01,2013-02-27 19:35:00,
2013-02-27 13:45:00,24.7,21.4,30.02,West,268,5.0,13.6,87,0.00,,CLR,0.00,VWS V14.01,2013-02-27 19:45:00,
2013-02-27 13:50:00,24.9,21.5,30.02,WNW,296,9.0,13.6,87,0.00,,CLR,0.00,VWS V14.01,2013-02-27 19:50:00,
2013-02-27 14:00:00,25.2,21.8,30.02,NW,309,7.0,14.7,87,0.00,,CLR,0.00,VWS V14.01,2013-02-27 20:00:00,
2013-02-27 14:05:00,25.2,21.8,30.02,WNW,302,8.0,14.7,87,0.00,,CLR,0.00,VWS V14.01,2013-02-27 20:05:00,
2013-02-27 14:10:00,25.4,22.3,30.02,NW,315,7.0,12.6,88,0.00,,CLR,0.00,VWS V14.01,2013-02-27 20:10:00,
2013-02-27 14:15:00,25.5,22.4,30.02,NW,310,10.0,14.7,88,0.00,,CLR,0.00,VWS V14.01,2013-02-27 20:15:00,
2013-02-27 14:20:00,25.4,22.6,30.02,NW,307,12.0,14.7,89,0.00,,CLR,0.00,VWS V14.01,2013-02-27 20:20:00,
2013-02-27 14:25:00,25.3,22.8,30.02,NW,304,7.0,14.7,90,0.00,,CLR,0.00,VWS V14.01,2013-02-27 20:25:00,
2013-02-27 14:35:00,25.1,22.6,30.02,NW,308,13.0,17.8,90,0.00,,CLR,0.00,VWS V14.01,2013-02-27 20:35:00,
2013-02-27 14:40:00,24.9,22.4,30.03,NW,308,12.0,15.7,90,0.00,,CLR,0.00,VWS V14.01,2013-02-27 20:40:00,
2013-02-27 14:50:00,24.6,22.3,30.02,NW,304,11.0,14.7,91,0.00,,CLR,0.00,VWS V14.01,2013-02-27 20:50:00,
2013-02-27 14:55:00,24.4,21.9,30.03,WNW,297,10.0,16.8,90,0.00,,CLR,0.00,VWS V14.01,2013-02-27 20:55:00,
2013-02-27 15:00:00,24.3,22.0,30.03,NNW,327,11.0,16.8,91,0.00,,CLR,0.00,VWS V14.01,2013-02-27 21:00:00,
2013-02-27 15:05:00,24.5,22.5,30.03,NW,306,9.0,14.7,92,0.00,,,0.00,VWS V14.01,2013-02-27 21:05:00,
2013-02-27 15:10:00,24.5,22.2,30.03,NW,313,13.0,16.8,91,0.00,,,0.00,VWS V14.01,2013-02-27 21:10:00,
2013-02-27 15:15:00,24.5,22.5,30.03,NW,317,11.0,17.8,92,0.00,,,0.00,VWS V14.01,2013-02-27 21:15:00,
2013-02-27 15:20:00,24.5,22.5,30.03,NW,315,7.0,15.7,92,0.00,,,0.00,VWS V14.01,2013-02-27 21:20:00,
2013-02-27 15:25:00,24.4,22.4,30.04,NW,310,11.0,17.8,92,0.00,,,0.00,VWS V14.01,2013-02-27 21:25:00,
2013-02-27 15:30:00,24.2,22.2,30.04,NW,306,13.0,19.9,92,0.00,,,0.00,VWS V14.01,2013-02-27 21:30:00,
2013-02-27 15:35:00,24.2,22.5,30.04,NW,304,15.0,15.7,93,0.00,,,0.00,VWS V14.01,2013-02-27 21:35:00,
2013-02-27 15:40:00,24.2,22.5,30.04,NW,320,14.0,16.8,93,0.00,,,0.00,VWS V14.01,2013-02-27 21:40:00,
2013-02-27 15:45:00,23.9,21.9,30.04,NW,304,12.0,17.8,92,0.00,,,0.00,VWS V14.01,2013-02-27 21:45:00,
2013-02-27 15:50:00,23.8,22.0,30.04,WNW,290,7.0,15.7,93,0.00,,,0.00,VWS V14.01,2013-02-27 21:50:00,
2013-02-27 15:55:00,23.4,21.4,30.04,NW,319,12.0,19.9,92,0.00,,,0.00,VWS V14.01,2013-02-27 21:55:00,
2013-02-27 16:00:00,23.1,21.4,30.04,NW,312,12.0,18.9,93,0.00,,,0.00,VWS V14.01,2013-02-27 22:00:00,
2013-02-27 16:05:00,23.2,21.5,30.04,NW,316,12.0,15.7,93,0.00,,,0.00,VWS V14.01,2013-02-27 22:05:00,
2013-02-27 16:10:00,23.1,21.4,30.04,NW,319,12.0,17.8,93,0.00,,,0.00,VWS V14.01,2013-02-27 22:10:00,
2013-02-27 16:15:00,22.9,21.2,30.04,WNW,294,9.0,17.8,93,0.00,,,0.00,VWS V14.01,2013-02-27 22:15:00,
2013-02-27 16:25:00,22.8,21.1,30.04,NW,323,11.0,16.8,93,0.00,,,0.00,VWS V14.01,2013-02-27 22:25:00,
2013-02-27 16:30:00,22.7,21.0,30.04,WNW,302,7.0,15.7,93,0.00,,,0.00,VWS V14.01,2013-02-27 22:30:00,
2013-02-27 16:35:00,22.7,21.0,30.04,NW,309,9.0,16.8,93,0.00,,,0.00,VWS V14.01,2013-02-27 22:35:00,
2013-02-27 16:40:00,22.7,21.2,30.05,NW,315,13.0,15.7,94,0.00,,,0.00,VWS V14.01,2013-02-27 22:40:00,
2013-02-27 16:45:00,22.7,21.2,30.05,NW,326,14.0,16.8,94,0.00,,,0.00,VWS V14.01,2013-02-27 22:45:00,
2013-02-27 16:50:00,22.7,21.2,30.05,NW,317,11.0,16.8,94,0.00,,,0.00,VWS V14.01,2013-02-27 22:50:00,
2013-02-27 16:55:00,22.6,21.1,30.05,WNW,300,13.0,16.8,94,0.00,,,0.00,VWS V14.01,2013-02-27 22:55:00,
2013-02-27 17:00:00,22.6,21.1,30.05,NW,304,12.0,15.7,94,0.00,,,0.00,VWS V14.01,2013-02-27 23:00:00,
2013-02-27 17:05:00,22.6,21.1,30.06,NW,306,12.0,15.7,94,0.00,,,0.00,VWS V14.01,2013-02-27 23:05:00,
2013-02-27 17:10:00,22.5,21.0,30.06,NW,315,9.0,16.8,94,0.00,,,0.00,VWS V14.01,2013-02-27 23:10:00,
2013-02-27 17:15:00,22.5,21.0,30.06,NW,318,10.0,15.7,94,0.00,,,0.00,VWS V14.01,2013-02-27 23:15:00,
2013-02-27 17:20:00,22.4,20.9,30.06,NW,309,10.0,16.8,94,0.00,,,0.00,VWS V14.01,2013-02-27 23:20:00,
2013-02-27 17:25:00,22.4,20.9,30.06,WNW,301,11.0,15.7,94,0.00,,,0.00,VWS V14.01,2013-02-27 23:25:00,
2013-02-27 17:35:00,22.2,20.7,30.06,NW,306,12.0,15.7,94,0.00,,,0.00,VWS V14.01,2013-02-27 23:35:00,
2013-02-27 17:40:00,22.1,20.6,30.06,NW,306,11.0,16.8,94,0.00,,,0.00,VWS V14.01,2013-02-27 23:40:00,
2013-02-27 17:45:00,22.0,20.5,30.06,NW,320,13.0,15.7,94,0.00,,CLR,0.00,VWS V14.01,2013-02-27 23:45:00,
2013-02-27 17:50:00,21.9,20.4,30.06,NW,313,12.0,15.7,94,0.00,,CLR,0.00,VWS V14.01,2013-02-27 23:50:00,
2013-02-27 17:55:00,21.9,20.4,30.07,NW,306,15.0,15.7,94,0.00,,CLR,0.00,VWS V14.01,2013-02-27 23:55:00,
2013-02-27 18:00:00,21.9,20.4,30.07,NW,306,12.0,15.7,94,0.00,,CLR,0.00,VWS V14.01,2013-02-28 00:00:00,
2013-02-27 18:05:00,21.8,20.3,30.07,NW,315,10.0,14.7,94,0.00,,CLR,0.00,VWS V14.01,2013-02-28 00:05:00,
2013-02-27 18:10:00,21.8,20.3,30.07,NW,313,11.0,14.7,94,0.00,,CLR,0.00,VWS V14.01,2013-02-28 00:10:00,
2013-02-27 18:20:00,21.7,20.2,30.07,NW,311,12.0,14.7,94,0.00,,CLR,0.00,VWS V14.01,2013-02-28 00:20:00,
2013-02-27 18:25:00,21.7,20.2,30.08,NW,306,9.0,13.6,94,0.00,,SCT010,0.00,VWS V14.01,2013-02-28 00:25:00,
2013-02-27 18:30:00,21.6,20.1,30.08,NW,315,12.0,14.7,94,0.00,,SCT010,0.00,VWS V14.01,2013-02-28 00:30:00,
2013-02-27 18:35:00,21.5,20.0,30.08,NW,309,13.0,13.6,94,0.00,,SCT010,0.00,VWS V14.01,2013-02-28 00:35:00,
2013-02-27 18:40:00,21.5,20.0,30.08,NW,309,13.0,13.6,94,0.00,,SCT010,0.00,VWS V14.01,2013-02-28 00:40:00,
2013-02-27 18:45:00,21.5,20.0,30.08,NW,309,13.0,13.6,94,0.00,,BKN010,0.00,VWS V14.01,2013-02-28 00:45:00,
2013-02-27 18:50:00,21.5,20.0,30.08,NW,309,13.0,13.6,94,0.00,,BKN010,0.00,VWS V14.01,2013-02-28 00:50:00,
2013-02-27 18:55:00,21.5,20.0,30.08,NW,309,13.0,13.6,94,0.00,,BKN010,0.00,VWS V14.01,2013-02-28 00:55:00,
2013-02-27 19:00:00,21.3,20.1,30.08,NW,317,10.0,13.6,95,0.00,,BKN010,0.00,VWS V14.01,2013-02-28 01:00:00,
2013-02-27 19:05:00,21.2,20.0,30.08,NW,322,11.0,12.6,95,0.00,,OVC010,0.00,VWS V14.01,2013-02-28 01:05:00,
2013-02-27 19:10:00,21.1,19.9,30.08,NW,313,11.0,13.6,95,0.00,,OVC010,0.00,VWS V14.01,2013-02-28 01:10:00,
2013-02-27 19:15:00,21.2,20.0,30.09,NW,317,11.0,12.6,95,0.00,,OVC010,0.00,VWS V14.01,2013-02-28 01:15:00,
2013-02-27 19:20:00,21.2,20.0,30.09,NW,309,9.0,14.7,95,0.00,,OVC010,0.00,VWS V14.01,2013-02-28 01:20:00,
2013-02-27 19:25:00,21.2,20.0,30.09,NW,304,9.0,12.6,95,0.00,,OVC010,0.00,VWS V14.01,2013-02-28 01:25:00,
2013-02-27 19:30:00,21.3,20.1,30.09,NW,315,10.0,13.6,95,0.00,,OVC010,0.00,VWS V14.01,2013-02-28 01:30:00,
2013-02-27 19:35:00,21.6,20.4,30.09,NW,312,10.0,12.6,95,0.00,,OVC010,0.00,VWS V14.01,2013-02-28 01:35:00,
2013-02-27 19:40:00,21.7,20.5,30.09,NW,326,8.0,10.5,95,0.00,,OVC010,0.00,VWS V14.01,2013-02-28 01:40:00,
2013-02-27 19:45:00,21.6,20.4,30.09,NW,307,11.0,11.5,95,0.00,,OVC010,0.00,VWS V14.01,2013-02-28 01:45:00,
2013-02-27 19:50:00,21.6,20.4,30.09,NW,314,7.0,11.5,95,0.00,,OVC010,0.00,VWS V14.01,2013-02-28 01:50:00,
2013-02-27 19:55:00,21.7,20.5,30.09,NW,318,7.0,11.5,95,0.00,,OVC010,0.00,VWS V14.01,2013-02-28 01:55:00,
2013-02-27 20:00:00,21.7,20.5,30.09,NW,311,6.0,11.5,95,0.00,,OVC010,0.00,VWS V14.01,2013-02-28 02:00:00,
2013-02-27 20:05:00,21.6,20.4,30.09,NW,320,7.0,11.5,95,0.00,,OVC008,0.00,VWS V14.01,2013-02-28 02:05:00,
2013-02-27 20:10:00,21.5,20.3,30.09,NW,306,8.0,11.5,95,0.00,,OVC008,0.00,VWS V14.01,2013-02-28 02:10:00,
2013-02-27 20:15:00,21.6,20.4,30.09,NW,317,8.0,11.5,95,0.00,,OVC008,0.00,VWS V14.01,2013-02-28 02:15:00,
2013-02-27 20:20:00,21.5,20.3,30.09,NW,317,8.0,11.5,95,0.00,,OVC008,0.00,VWS V14.01,2013-02-28 02:20:00,
2013-02-27 20:25:00,21.3,20.1,30.09,NW,311,8.0,10.5,95,0.00,,OVC008,0.00,VWS V14.01,2013-02-28 02:25:00,
2013-02-27 20:30:00,21.1,19.9,30.09,NW,311,7.0,11.5,95,0.00,,OVC008,0.00,VWS V14.01,2013-02-28 02:30:00,
2013-02-27 20:35:00,20.9,19.7,30.09,NW,313,8.0,10.5,95,0.00,,OVC008,0.00,VWS V14.01,2013-02-28 02:35:00,
2013-02-27 20:40:00,20.9,19.7,30.09,NW,316,8.0,12.6,95,0.00,,OVC008,0.00,VWS V14.01,2013-02-28 02:40:00,
2013-02-27 20:45:00,21.0,19.8,30.10,NW,306,10.0,11.5,95,0.00,,OVC008,0.00,VWS V14.01,2013-02-28 02:45:00,
2013-02-27 20:50:00,20.9,19.7,30.10,NW,309,10.0,11.5,95,0.00,,OVC008,0.00,VWS V14.01,2013-02-28 02:50:00,
2013-02-27 20:55:00,20.9,19.7,30.10,NW,304,8.0,11.5,95,0.00,,OVC008,0.00,VWS V14.01,2013-02-28 02:55:00,
2013-02-27 21:00:00,20.8,19.6,30.10,NW,307,9.0,10.5,95,0.00,,OVC008,0.00,VWS V14.01,2013-02-28 03:00:00,
2013-02-27 21:10:00,20.7,19.5,30.10,NW,318,7.0,10.5,95,0.00,,BKN008,0.00,VWS V14.01,2013-02-28 03:10:00,
2013-02-27 21:15:00,20.6,19.4,30.10,NW,304,8.0,10.5,95,0.00,,BKN008,0.00,VWS V14.01,2013-02-28 03:15:00,
2013-02-27 21:20:00,20.4,18.9,30.10,NW,312,8.0,9.4,94,0.00,,BKN008,0.00,VWS V14.01,2013-02-28 03:20:00,
2013-02-27 21:25:00,20.3,19.1,30.11,NW,311,8.0,10.5,95,0.00,,SCT010,0.00,VWS V14.01,2013-02-28 03:25:00,
2013-02-27 21:30:00,20.2,19.0,30.11,NW,313,8.0,11.5,95,0.00,,SCT010,0.00,VWS V14.01,2013-02-28 03:30:00,
2013-02-27 21:35:00,20.3,19.1,30.11,NW,316,7.0,11.5,95,0.00,,SCT010,0.00,VWS V14.01,2013-02-28 03:35:00,
2013-02-27 21:40:00,20.2,18.7,30.11,NW,312,9.0,10.5,94,0.00,,SCT010,0.00,VWS V14.01,2013-02-28 03:40:00,